Regional Weather Roundup
Issued by NWS Upton, NY

Current Version | Previous Version | Graphics & Text | Print | Product List | Glossary Off
Versions: 1 2 3 4 5 6 7 8 9 10 11 12 13 14 15 16 17 18 19 20 21 22 23 24 25 26 27

000
ASUS41 KOKX 221309
RWROKX

REGIONAL WEATHER ROUNDUP
NATIONAL WEATHER SERVICE NEW YORK NY
900 AM EDT THU JUN 22 2017

NOTE: "FAIR" INDICATES FEW OR NO CLOUDS BELOW 12,000 FEET WITH NO
SIGNIFICANT WEATHER AND/OR OBSTRUCTIONS TO VISIBILITY.

NYZ071-072-176-178-NJZ106-104-221400-
NEW YORK CITY METRO AREA

CITY           SKY/WX    TMP DP  RH WIND       PRES   REMARKS
Central Park   SUNNY     75  56  51 CALM      30.06S
Bronx Bot Gard   N/A     75  55  50 S1        30.03F
LaGuardia APRT PTSUNNY   74  55  51 NE6       30.02S
Kennedy INTL   MOSUNNY   76  60  57 E5        30.04R
Breezy Point     N/A     70 N/A N/A SE5         N/A
Newark/Liberty MOSUNNY   76  57  51 CALM      30.03S
Teterboro      SUNNY     75  57  53 VRB3      30.02S
$$

NYZ177-179-078>081-221400-
LONG ISLAND NEW YORK

CITY           SKY/WX    TMP DP  RH WIND       PRES   REMARKS
Jones Beach      N/A     70 N/A N/A NE5         N/A
Matinecock PT  NOT AVBL
Farmingdale    NOT AVBL
MacArthur/ISP  NOT AVBL
Shirley        NOT AVBL
Mt Sinai Harb    N/A    N/A N/A N/A NW2         N/A
Westhampton    SUNNY     74  52  46 N10       30.05R
East Hampton   FAIR      71  54  53 N7        30.02R
Montauk          N/A     71  52  50 VRB5      30.03S
$$

NYZ052-065-067-221400-
HUDSON VALLEY

CITY           SKY/WX    TMP DP  RH WIND       PRES   REMARKS
White Plains   SUNNY     73  55  53 NW3       30.03S
Larchmont Harb   N/A     68 N/A N/A E3          N/A
Croton O-T Hud   N/A     68 N/A N/A MISG        N/A
Newburgh       SUNNY     68  59  73 W7        30.06R
Montgomery     SUNNY     70  59  68 CALM      30.04S
Poughkeepsie   SUNNY     69  59  70 CALM      30.03S
Albany         MOSUNNY   68  53  58 S3        30.02F
$$

NJZ001-105-106-008-010-013-015-019>022-104-221400-
NEW JERSEY

CITY           SKY/WX    TMP DP  RH WIND       PRES   REMARKS
Newark/Liberty MOSUNNY   76  57  51 CALM      30.03S
Teterboro      SUNNY     75  57  53 VRB3      30.02S
Caldwell       SUNNY     74  58  57 CALM      30.04S
Somerville     SUNNY     75  61  61 CALM      30.01F
Linden         FAIR      75  56  51 E5        30.03F
Perth Amboy      N/A     70 N/A N/A SE10        N/A
Sussex         SUNNY     70  61  73 CALM      30.04F
Andover          N/A     71  60  68 CALM      30.04F
Trenton        SUNNY     74  63  68 E3        30.02F
Millville      SUNNY     77  69  76 CALM      30.02S
Atlantic City  SUNNY     78  69  73 CALM      30.02S
Wrightstown    SUNNY     74  65  74 E5        30.00S
Toms River     SUNNY     74  66  76 NE6       30.03S
Belmar         SUNNY     73  59  61 NE6       30.04S
$$

PAZ047>061-062-071-221400-
EASTERN PENNSYLVANIA

CITY           SKY/WX    TMP DP  RH WIND       PRES   REMARKS
Philadelphia   PTSUNNY   78  66  66 E6        30.02S
Allentown      SUNNY     72  60  66 CALM      30.04S
Scranton       SUNNY     68  58  70 VRB3      30.03F
$$

CTZ002-004>006-009-010-012-RIZ004-006-007-MAZ004-011-015-221400-
SOUTHERN NEW ENGLAND
 IN CT

CITY           SKY/WX    TMP DP  RH WIND       PRES   REMARKS
Bradley INTL   MOSUNNY   72  56  57 VRB3      30.02S
Hartford       SUNNY     72  56  57 W3        30.02S
Danbury        SUNNY     72  56  57 W3        30.05S
Wtrbury/Oxford MOSUNNY   70  54  56 N5        30.06R
Bridgeport     SUNNY     72  57  59 SW6       30.04R
Meriden        SUNNY     72  55  55 NW7       30.03R
New Haven      MOSUNNY   73  55  53 MISG      30.04R
Chester        FAIR      72  52  49 NW7       30.04R
Groton         NOT AVBL
Wilimantic     SUNNY     73  55  53 W5        30.02S

 IN RI

CITY           SKY/WX    TMP DP  RH WIND       PRES   REMARKS
Providence     MOSUNNY   72  56  57 CALM      30.01R
Block Island   SUNNY     70  55  59 NW8       30.02S
Westerly       SUNNY     74  54  49 VRB3      30.02S
 IN MA

CITY           SKY/WX    TMP DP  RH WIND       PRES   REMARKS
Boston         MOSUNNY   73  53  49 W8        29.99R
Worcester      SUNNY     67  51  56 W12       30.02S
Westfield      NOT AVBL
Provincetown   SUNNY     67  57  70 W6        30.00R
Nantucket      SUNNY     72  55  55 NW10      30.00R
$$

ANZ330-335-338-340-345-350-353-355-221400-
COASTAL MARINE OBSERVATIONS


STATION/POSITION TIME  SKY/WX   TEMP    WIND        PRES    VSBY  WAVE
                                AIR SEA DIR/SP/G                  HT/PER
                 (UTC)          (F)     (DEG/KT/KT) (MB)    (MI)  (FT/S)
NY HARB ENTRANCE 1150            67 65   40/  4/  6 1016.7          2/ 6
20 S FIRE ISLAND 1150            69 67   60/  4/  6 1016.1          3/ 6
GREAT SOUTH BAY  1215            72 75     CALM       N/A
23 SSW MONTAUK P 1150            65 62              1016.7          3/ 6
15 E BARNEGAT LI 1230               66                N/A           2/ 6
HUDSON CANYON    1150            66 65  310/  2/  4 1016.4          3/ 5
KINGS POINT      1230            68 65     CALM     1017.0
EXECUTION ROCKS  1245            75        CALM       N/A
CENTRAL LI SOUND NOT AVBL
EASTERN LI SOUND NOT AVBL
ROBBINS REEF     1224                    10/  1/  3 1017.6
$$


>>>>>>>>>>>>>>>>>>>>>>>>>>>> KEY <<<<<<<<<<<<<<<<<<<<<<<<<<<
>                                                          <
>     SKY/WX - Sky Condition/Present Weather               <
>     TMP    - Temperature in Fahrenheit                   <
>     DP     - Dew Point in Fahrenheit                     <
>     RH     - Relative Humidity in Percent                <
>     WIND   - Direction (from) and Speed in MPH           <
>     PRES   - Mean Sea Level Pressure (inches of Hg)      <
>     WCI    - Wind Chill Index                            <
>     VSB    - VISIBILITY IN MILES                         <
>     HX     - HEAT INDEX                                  <
>     TC     - TEMPERATURE IN CELSIUS                      <
>     VRB    - VARIABLE WIND DIRECTION                     <
>                                                          <
>>>>>>>>>>>>>>>>>>>>>>>>>>>> KEY <<<<<<<<<<<<<<<<<<<<<<<<<<<




USA.gov is the U.S. government's official web portal to all federal, state and local government web resources and services.